Theta_e
299 300 301 300 301 301 301 300 301 301 301 301 301 300 298 299 303 304 312 311 310 311 311 312 312 312 315 320 322 322 324 324 327 329 328 329 330 330 333 337 335 340 338 337 339 338 339 336 337 338 343 336 336 336
299 299 300 300 301 301 300 301 300 300 301 301 302 301 299 300 303 304 310 310 310 310 311 311 311 311 311 313 315 317 321 329 328 332 330 330 329 330 336 331 334 336 339 346 343 342 338 336 337 335 335 335 334 334
300 300 300 300 300 301 301 301 301 301 301 301 302 302 299 300 303 304 306 309 310 312 313 313 313 314 311 311 311 314 322 321 326 324 328 332 334 335 336 336 337 338 335 337 337 337 334 334 332 331 332 332 331 331
300 300 300 300 301 301 300 301 301 300 301 301 301 302 299 300 303 304 306 308 309 311 313 314 311 311 310 309 311 312 316 316 317 319 325 329 331 330 332 335 335 336 335 334 337 334 335 331 330 330 330 331 331 331
301 300 300 300 300 300 301 300 300 299 300 300 301 302 299 300 303 304 306 308 308 310 315 314 313 311 311 312 312 313 314 316 317 318 321 325 326 328 328 329 330 330 334 335 335 331 333 329 328 327 327 327 329 331
301 301 300 300 299 299 300 301 300 301 301 300 301 302 299 300 304 306 311 309 309 310 311 316 314 314 313 313 312 314 315 315 315 317 319 320 322 324 326 325 324 327 329 329 328 326 326 326 326 326 324 324 325 325
301 301 301 300 300 300 300 301 300 301 302 300 301 302 299 301 304 307 308 309 308 306 312 314 314 313 312 314 314 313 313 314 314 316 316 317 319 318 320 320 320 320 322 322 321 322 321 320 321 321 322 323 322 323
300 301 301 300 300 300 300 300 300 300 301 300 302 300 300 302 303 305 307 306 303 307 311 315 315 315 312 315 316 315 315 314 314 316 316 316 318 317 317 318 318 318 319 318 317 317 317 319 319 320 320 320 321 321
300 300 301 300 301 300 300 301 300 301 301 301 301 300 303 304 308 308 307 305 303 309 313 313 315 317 314 316 317 316 317 317 316 316 315 316 317 317 319 318 318 318 319 318 319 319 320 320 321 322 322 322 322 322
300 301 301 301 302 301 301 301 301 301 301 301 301 305 307 308 306 305 308 310 309 310 309 312 313 315 312 314 314 316 315 318 320 320 316 316 317 317 317 318 319 320 320 320 321 322 322 322 321 321 321 322 322 322
301 303 302 302 302 301 302 302 302 301 301 302 304 307 308 304 307 308 310 311 311 311 311 310 312 314 312 316 317 315 316 317 316 318 319 319 323 324 322 323 323 322 322 321 320 319 319 319 319 319 318 318 320 322
302 302 303 302 302 301 301 301 302 301 303 304 306 307 306 308 309 310 311 311 312 312 311 312 311 313 315 314 316 316 315 316 316 318 319 319 330 325 324 323 322 321 320 320 319 319 318 318 318 317 317 317 317 320
301 301 302 301 301 302 302 302 302 303 303 304 305 307 309 309 308 309 310 311 311 311 311 313 314 312 314 313 315 317 316 316 316 316 317 327 323 322 322 322 322 321 321 320 319 318 318 318 318 318 318 318 318 320
301 302 302 301 302 301 302 302 301 302 303 305 306 308 309 309 308 310 310 311 311 312 312 313 313 315 315 314 317 316 317 317 318 318 322 322 320 320 320 320 320 321 320 320 320 320 319 320 319 319 319 320 320 322
301 301 301 301 302 302 302 301 302 302 304 306 306 308 308 308 308 310 310 311 311 312 312 312 314 314 315 315 315 317 316 317 317 321 321 319 319 319 320 320 320 321 321 321 321 321 320 320 321 320 321 325 326 327
300 300 301 301 301 301 301 301 301 303 305 306 306 308 308 309 309 308 309 310 310 311 312 312 314 315 315 316 315 316 316 319 321 320 318 318 319 319 319 320 321 321 321 321 321 323 323 323 322 322 324 325 326 325
301 302 301 301 301 301 301 303 303 305 305 306 306 307 309 310 310 309 309 309 311 311 313 314 315 314 314 314 314 315 321 319 317 317 318 319 319 317 318 317 319 317 317 319 319 320 319 321 321 321 321 321 321 322
302 301 301 301 301 301 302 304 305 305 306 306 307 309 308 309 309 310 309 309 310 312 313 315 314 313 315 315 318 318 317 317 317 317 318 318 320 319 315 315 317 317 317 318 319 318 318 319 320 319 319 323 323 323
302 301 301 301 302 304 305 305 305 306 306 307 307 308 308 308 309 309 309 310 311 312 313 314 315 315 316 317 316 316 316 316 317 317 317 318 319 318 317 317 317 318 315 315 316 316 316 317 317 318 318 319 320 320
300 301 302 302 303 305 306 306 306 307 308 308 308 308 308 309 309 309 309 310 311 311 312 313 313 314 314 314 314 315 316 317 317 318 318 317 316 317 317 317 316 316 316 316 315 315 315 316 316 316 316 315 315 318
302 302 302 302 305 306 307 307 307 308 308 308 309 310 310 309 309 308 309 309 309 310 311 311 312 312 313 314 315 316 316 317 318 319 319 319 316 316 316 317 316 316 315 314 314 314 315 315 314 315 315 315 316 317
304 303 304 304 305 306 305 308 308 308 308 308 309 310 311 311 310 311 312 312 311 311 311 311 312 313 315 315 316 317 316 315 316 317 315 315 317 316 316 316 316 315 315 314 314 315 314 314 314 313 313 314 315 314
303 303 303 303 303 303 304 304 307 307 307 307 308 310 310 311 310 309 311 310 310 310 310 312 312 313 315 317 316 315 316 320 318 317 316 317 316 316 315 316 316 315 315 313 312 311 312 312 313 314 313 312 313 313
301 301 301 301 302 302 302 304 304 305 306 307 308 307 307 308 306 306 305 307 313 316 317 317 316 316 315 316 316 317 318 315 317 317 317 316 316 315 315 315 315 315 314 313 312 311 311 311 311 312 312 313 312 312
304 304 302 301 301 301 307 307 306 304 305 306 304 306 307 306 309 311 313 315 314 314 315 316 316 316 316 316 317 318 317 316 315 314 315 315 314 313 313 313 313 313 314 314 314 313 313 312 312 311 311 311 311 311
309 313 312 313 309 313 314 317 312 315 318 316 317 317 314 316 316 316 317 316 316 315 315 317 317 315 315 315 315 315 314 313 313 313 314 314 314 313 313 313 313 313 313 313 313 312 312 312 312 313 313 312 311 311
320 319 318 319 319 319 320 319 319 319 318 317 317 316 315 315 315 315 315 315 315 314 314 314 313 314 314 314 314 314 315 315 315 315 314 313 313 313 313 313 313 311 311 312 312 312 313 313 313 313 312 312 312 312
319 316 316 316 316 315 316 316 316 317 317 315 315 317 316 316 315 315 315 315 315 315 315 315 314 315 315 315 314 314 314 313 313 313 312 312 311 311 310 308 307 306 306 307 306 306 307 307 308 309 310 311 312 312
316 315 315 316 316 316 315 315 315 315 315 315 315 315 314 314 315 315 315 315 315 314 314 314 314 314 314 314 313 312 312 312 311 309 308 308 308 307 306 305 306 305 304 305 305 306 305 305 305 305 306 306 307 309
316 315 316 316 317 317 315 315 315 314 314 314 314 315 315 316 316 315 315 315 315 314 313 313 313 313 312 312 311 311 310 309 308 307 306 306 305 304 304 304 304 303 302 303 304 303 303 303 304 305 306 308 308 308
317 316 316 316 316 317 316 315 315 315 315 315 315 315 315 315 315 315 315 315 314 314 313 312 312 311 310 309 308 308 307 307 307 307 305 304 302 302 301 301 302 301 302 302 302 302 302 302 302 303 304 305 305 305
318 318 318 318 318 317 317 316 316 316 316 316 316 317 317 317 316 315 315 315 314 313 313 312 311 309 308 307 307 306 306 306 305 304 303 301 300 300 300 300 301 301 301 301 301 301 300 300 300 300 302 302 302 301
319 319 320 319 318 319 318 318 319 319 318 317 317 317 316 317 317 316 315 314 313 313 313 311 309 307 307 306 305 305 304 304 303 302 301 300 299 299 300 301 301 301 300 300 300 300 299 299 299 299 300 300 299 299
Wind_Speed
26 25 23 23 23 21 20 18 19 18 16 17 14 13 13 11 11 10 4 6 7 10 18 9 13 14 16 12 8 16 7 8 9 11 11 12 13 13 16 15 9 16 4 9 12 15 17 12 11 10 10 11 7 11
23 22 23 25 23 19 19 17 16 15 14 15 14 13 11 10 9 6 8 7 9 13 15 14 14 10 9 8 10 13 11 7 9 5 2 7 12 11 4 11 13 9 9 7 3 2 24 15 21 23 10 10 9 6
22 22 23 21 20 19 18 17 15 14 13 13 12 14 10 9 8 8 10 7 14 12 19 18 9 6 4 4 5 6 6 10 7 10 7 5 3 6 4 6 11 6 9 0 5 7 5 13 20 15 12 7 4 3
20 20 20 18 17 17 16 16 15 13 12 12 11 12 10 9 8 9 6 6 9 10 8 8 6 1 6 5 5 6 8 10 12 11 11 6 5 7 6 5 2 14 5 5 11 11 16 18 12 9 9 8 9 9
22 20 19 19 19 18 16 15 13 12 10 10 10 10 9 8 8 9 9 5 5 5 7 12 8 3 1 1 1 3 4 7 9 7 4 5 6 8 5 5 6 10 3 1 9 13 12 14 9 11 10 10 9 10
20 18 17 17 17 16 16 15 13 11 9 8 8 9 8 6 5 4 2 3 3 5 6 4 5 5 3 1 1 3 4 4 6 5 4 6 5 7 6 4 8 11 19 17 12 11 11 10 8 8 7 10 10 10
15 16 17 15 14 14 15 14 13 11 11 8 7 8 7 6 5 6 3 3 3 4 5 5 3 6 5 3 3 4 3 4 4 4 4 6 2 3 4 8 15 17 12 8 9 9 11 12 12 11 11 13 14 13
13 14 15 15 13 12 13 15 13 10 10 8 5 5 3 3 3 2 6 5 4 4 5 4 3 5 5 8 8 4 5 4 4 5 1 2 7 3 3 3 7 12 13 10 9 9 8 11 14 15 15 15 15 15
18 15 13 12 11 11 11 12 13 11 9 6 5 3 1 3 3 3 3 6 4 5 7 5 7 4 5 6 4 4 3 4 7 4 4 3 4 4 4 4 2 4 5 7 8 10 12 12 12 13 14 14 15 16
13 13 13 13 12 11 10 12 13 11 10 7 4 4 4 3 3 1 2 3 5 6 6 5 11 2 4 6 6 2 3 4 3 7 6 5 6 9 7 7 2 7 7 9 10 11 12 13 13 15 16 16 18 19
14 13 14 9 13 13 11 13 13 14 10 6 5 4 3 8 3 1 2 5 6 3 7 9 9 4 1 5 4 3 2 3 3 3 2 3 5 12 17 17 12 9 8 9 11 13 14 16 17 18 19 19 20 19
7 10 12 10 12 13 14 12 16 15 7 5 1 2 6 3 3 4 2 4 5 5 7 5 7 4 3 3 4 2 2 2 3 3 1 3 9 16 13 12 10 10 12 14 15 18 20 20 20 22 23 23 23 22
10 6 16 15 12 13 9 13 20 11 5 4 1 1 0 2 1 4 5 4 4 1 6 4 5 4 2 3 2 2 3 5 1 2 3 5 12 14 14 14 14 16 18 21 22 23 24 26 25 24 25 26 25 24
8 13 13 13 14 11 13 16 19 8 4 3 4 2 3 3 5 4 3 1 6 11 8 2 8 5 4 3 3 4 2 1 3 4 3 7 14 14 14 16 18 20 21 23 24 24 25 27 27 23 24 24 26 21
13 17 14 14 13 16 18 19 12 6 1 1 2 2 5 7 5 4 2 4 4 8 7 2 3 3 5 2 3 3 4 3 5 4 8 17 16 16 17 15 15 16 17 19 20 22 22 21 23 21 25 19 12 7
13 21 17 18 17 17 17 15 8 3 2 2 3 5 6 5 5 4 6 3 11 8 4 4 1 2 1 2 1 3 3 0 4 7 14 12 18 20 16 12 13 13 14 15 19 15 13 16 14 14 6 4 5 6
14 10 18 16 16 17 17 9 5 2 2 4 3 6 2 2 2 3 7 5 5 6 2 0 3 2 2 2 2 3 5 6 9 12 8 10 13 14 10 8 8 15 12 11 12 19 12 14 11 13 10 7 2 1
18 19 19 18 17 15 7 2 1 3 3 6 4 4 8 3 3 8 6 2 4 3 2 2 4 3 2 3 2 4 8 9 9 9 9 10 10 7 7 7 6 11 13 13 14 16 14 13 9 5 3 2 3 1
16 21 22 19 10 4 3 4 1 2 5 2 5 5 2 3 2 1 1 3 2 2 2 4 3 3 1 4 4 5 8 8 11 13 10 10 9 9 7 7 9 9 8 11 12 10 8 8 10 7 6 5 5 3
16 16 11 8 2 0 0 1 3 3 3 1 4 3 2 2 2 2 1 1 0 1 1 2 3 6 7 6 7 8 7 10 13 11 11 10 8 9 7 7 8 9 11 11 12 12 10 5 5 6 4 6 5 5
10 5 2 3 3 2 2 2 3 3 2 2 1 3 2 3 3 4 7 5 7 3 4 4 5 3 8 9 8 10 14 12 11 10 13 14 13 12 10 12 13 10 9 11 11 13 11 12 8 6 7 5 7 5
1 4 3 3 3 3 2 2 3 4 3 3 4 0 3 2 4 1 5 5 6 9 9 10 9 9 9 10 11 13 11 11 11 9 7 10 10 17 13 14 14 13 10 11 14 11 15 11 9 13 13 7 8 10
4 5 3 3 2 2 3 2 1 2 2 2 1 1 3 3 5 6 4 3 6 13 12 13 14 12 13 13 9 8 7 6 7 6 11 12 11 10 11 11 11 13 12 11 13 12 13 14 11 6 11 12 13 14
5 3 4 3 5 2 1 1 2 1 1 1 1 1 1 1 1 2 2 4 7 5 1 0 2 4 4 3 5 6 2 4 6 7 9 11 11 11 12 13 13 12 10 9 11 12 13 14 14 14 14 14 14 15
5 8 7 5 6 4 4 3 1 0 2 3 4 3 4 6 1 2 5 5 9 11 7 2 5 7 3 1 0 2 6 6 9 9 7 8 14 14 14 15 15 13 14 11 11 12 14 14 15 15 15 16 16 17
5 7 8 13 8 7 8 5 8 7 6 9 8 10 12 7 4 3 4 8 7 6 6 3 2 7 7 1 2 3 6 8 6 8 8 9 10 10 12 12 13 14 14 15 17 20 21 20 20 20 20 19 18 17
3 2 2 1 7 10 6 5 7 4 5 4 5 5 5 4 5 4 9 12 10 9 6 6 6 6 7 5 4 4 6 9 5 8 11 13 14 16 15 16 16 15 17 17 20 21 22 23 22 22 23 23 22 21
1 6 13 17 16 18 17 14 13 13 10 15 19 14 5 4 4 6 4 8 9 9 9 8 7 8 8 10 10 12 13 12 13 13 14 14 13 14 16 17 19 23 21 19 21 21 22 23 24 25 25 25 25 25
17 19 16 18 18 13 18 17 18 20 21 23 16 11 16 13 10 11 9 9 12 13 13 13 13 12 12 13 14 14 14 15 16 17 18 19 18 18 19 19 19 20 21 21 22 22 23 24 25 24 24 25 25 25
13 15 14 14 12 11 15 15 15 14 15 16 18 18 17 16 12 11 11 11 12 13 13 12 13 14 15 16 17 16 15 15 16 17 19 19 20 21 21 21 22 22 20 21 22 22 23 22 22 22 22 19 19 22
11 9 7 6 5 9 8 9 8 7 10 9 12 16 12 14 14 13 13 13 14 14 13 14 14 16 17 17 18 19 20 19 18 17 16 18 19 20 20 22 21 20 20 21 21 22 23 23 22 21 23 18 18 19
11 13 13 6 9 6 5 5 7 4 11 7 5 10 7 5 9 9 11 13 14 14 12 13 16 18 17 17 18 19 20 19 19 19 19 19 20 21 20 21 18 17 20 20 20 21 22 22 22 22 20 20 21 20
7 7 7 1 1 4 4 4 2 4 8 7 2 8 7 8 8 7 7 13 15 16 13 12 16 17 17 19 21 21 20 19 19 20 24 25 24 22 21 15 15 18 18 20 21 21 22 22 23 23 18 16 19 19
Wind_Direction
272 273 273 274 276 279 277 278 275 280 285 295 302 304 303 307 322 329 241 314 341 297 287 317 334 335 329 337 325 357 276 222 274 235 240 244 254 238 240 235 210 273 262 253 246 249 247 332 104 154 82 97 43 33
275 271 271 268 270 272 274 275 276 268 274 291 298 304 295 296 309 308 318 309 314 288 270 297 298 297 276 280 325 319 309 2 4 295 305 274 258 274 250 266 307 213 169 172 310 6 330 65 95 104 96 78 53 38
271 268 269 267 266 263 268 268 270 272 273 274 285 296 285 280 294 297 301 352 328 288 280 246 252 226 320 292 266 286 37 355 348 344 312 302 308 329 341 22 305 62 9 201 141 154 153 315 62 52 58 56 32 27
276 269 266 264 262 261 264 260 260 263 271 273 273 289 282 270 278 292 296 325 326 302 274 151 206 192 269 284 269 240 290 322 306 301 299 293 300 28 306 100 45 250 102 339 271 54 228 84 76 57 46 32 19 9
262 269 270 266 261 259 258 262 258 254 268 276 266 289 285 268 271 288 290 297 296 318 320 313 302 163 348 295 222 224 278 313 314 290 265 280 303 343 324 296 229 358 114 37 73 49 60 60 43 62 37 15 12 9
254 259 264 263 262 257 252 249 248 246 257 272 258 282 282 259 269 333 192 148 244 316 287 276 142 184 217 257 245 229 242 275 272 316 291 296 51 352 315 304 306 55 64 51 72 48 32 360 5 36 7 346 352 345
260 268 251 257 259 254 243 239 246 248 244 258 251 279 276 230 245 266 277 242 239 356 262 277 235 156 206 218 208 208 209 260 262 249 238 297 23 2 298 288 304 351 39 44 24 6 350 348 341 340 334 328 327 319
266 277 252 244 246 246 240 229 233 224 231 241 246 271 250 228 264 259 284 284 332 267 265 268 233 176 185 216 181 191 201 198 207 277 253 261 155 182 266 0 347 355 4 5 355 4 354 343 335 330 327 321 310 305
259 258 242 228 235 232 226 225 212 209 209 217 230 237 190 231 232 189 251 299 252 259 305 253 289 96 167 253 62 169 278 215 155 213 230 242 220 207 188 221 300 334 6 347 343 338 332 315 315 317 316 318 319 317
233 233 234 230 235 216 210 206 200 200 191 195 177 218 234 187 206 137 4 183 201 213 238 264 299 73 241 177 185 216 194 266 210 200 209 220 255 266 248 253 189 69 28 7 339 326 330 317 311 312 313 309 304 299
240 228 216 218 201 197 202 195 181 175 170 174 211 233 128 131 133 189 245 206 202 229 212 234 283 329 52 341 348 352 343 347 238 166 221 230 97 46 56 66 58 45 14 345 331 321 313 308 305 302 299 300 301 299
187 193 185 188 179 180 186 184 173 157 168 207 235 146 151 199 182 231 232 244 231 224 153 204 192 223 75 331 307 122 263 214 274 66 247 228 51 42 44 30 20 1 342 326 315 307 300 296 294 294 291 289 287 292
150 160 170 165 166 167 179 180 176 183 136 164 286 315 241 170 217 192 184 216 215 168 133 154 151 194 164 246 269 340 217 232 23 260 230 72 43 22 6 348 333 322 316 310 304 298 296 292 287 287 291 287 280 277
164 160 155 153 160 161 160 157 163 144 96 161 168 209 227 195 214 230 229 218 95 73 107 163 115 38 53 187 251 199 311 2 274 247 111 50 16 351 335 325 322 317 313 308 302 299 296 289 285 280 285 281 276 262
133 141 137 149 154 156 154 155 152 151 27 352 275 258 210 233 181 164 71 132 63 77 80 129 154 234 181 152 245 11 184 255 222 39 29 15 348 337 327 324 328 333 330 321 320 313 304 298 290 275 283 302 293 244
103 134 137 135 142 147 150 147 148 94 345 292 260 248 250 205 270 171 102 62 121 126 181 205 336 10 211 73 51 252 245 148 42 358 347 354 353 347 342 333 333 333 331 332 331 332 324 318 307 286 276 344 38 39
129 129 149 145 137 141 138 136 161 222 292 286 257 222 325 287 81 19 116 149 163 180 270 200 185 176 283 136 225 273 18 32 342 324 323 335 332 345 1 8 25 20 14 19 27 33 19 359 347 348 7 348 324 232
114 127 135 135 132 138 149 177 230 207 234 248 285 295 172 210 25 44 73 97 8 358 334 295 304 195 215 224 64 357 353 333 330 333 324 312 311 328 1 15 359 334 346 339 353 13 16 17 6 352 335 352 324 291
114 123 125 125 143 155 186 188 292 292 252 122 244 277 332 56 41 85 51 139 79 33 8 309 242 235 115 66 23 349 341 331 329 320 315 311 300 299 312 317 307 331 8 17 6 5 9 10 17 6 357 329 350 271
117 123 124 132 54 320 289 229 219 268 284 292 239 243 116 130 186 203 187 196 210 276 285 253 357 19 358 4 329 313 306 310 309 310 315 322 320 292 289 318 338 349 349 343 334 321 338 324 331 328 321 307 321 276
106 140 92 340 348 296 279 253 235 299 325 273 20 350 267 171 225 192 228 195 228 228 284 360 344 325 321 301 300 295 299 306 288 273 277 300 337 345 333 330 341 339 350 335 324 323 314 324 322 328 308 295 270 298
205 218 297 324 319 320 287 328 330 344 339 323 308 295 292 230 214 16 332 276 263 255 275 286 291 297 301 306 315 306 294 284 292 279 295 297 312 313 316 304 323 305 314 315 313 308 319 333 336 316 304 299 308 294
241 235 264 258 263 275 262 299 261 351 324 314 262 15 17 14 23 3 355 311 275 264 271 263 271 283 283 288 294 286 289 277 279 263 268 268 271 280 314 310 310 306 311 341 332 322 319 318 322 325 309 303 296 295
221 204 206 223 212 267 247 193 210 270 237 0 52 3 228 131 69 106 244 249 292 297 274 92 123 125 135 236 272 270 307 293 269 277 282 298 295 293 283 295 309 314 320 326 326 324 325 320 319 313 311 305 300 299
208 195 185 220 197 195 193 173 180 165 223 164 184 231 197 162 157 4 347 13 86 88 110 215 251 255 247 188 335 304 306 303 337 333 333 322 324 325 320 322 325 319 323 324 325 322 317 314 314 312 312 308 307 302
244 208 203 163 172 207 190 176 188 221 197 178 194 144 161 184 120 130 195 193 189 189 209 244 329 26 5 115 5 347 347 352 352 345 338 321 319 325 323 316 319 323 320 324 326 320 314 311 307 306 302 301 300 297
328 320 230 1 78 116 135 117 154 158 80 71 113 137 88 76 63 54 44 61 74 82 80 67 67 55 47 33 9 3 344 343 325 341 335 334 325 346 0 354 360 347 337 321 315 316 316 314 311 307 304 301 300 305
113 22 52 71 69 67 71 70 67 73 81 85 77 65 70 85 109 101 51 35 39 36 34 36 31 27 32 15 4 359 353 339 341 345 333 330 328 325 332 332 326 324 328 319 319 317 313 311 308 304 304 302 301 297
54 63 62 55 55 41 53 63 69 78 84 86 86 92 96 92 77 51 58 53 43 33 31 23 17 12 5 1 358 351 346 347 349 342 338 334 333 331 330 327 325 325 324 322 318 317 316 317 315 312 306 302 300 298
45 61 66 57 43 56 65 71 87 85 97 105 106 104 95 84 71 62 56 33 20 30 22 12 12 9 4 356 351 347 345 345 340 337 332 330 327 325 324 324 323 324 324 322 320 319 320 319 318 314 316 326 333 336
65 74 90 75 65 71 51 61 70 95 111 114 106 102 106 104 82 54 41 25 17 15 18 8 6 3 356 352 347 342 338 334 332 329 327 323 322 322 323 322 323 325 323 322 323 323 324 325 323 319 322 335 339 347
27 12 15 36 327 6 68 34 13 27 82 89 84 116 124 119 91 53 24 12 13 5 5 4 360 353 348 344 339 333 331 328 327 326 326 323 322 322 323 326 326 322 324 326 326 327 327 328 326 323 324 325 329 331
44 2 345 65 154 359 342 101 119 306 9 0 39 112 137 99 75 36 20 12 4 354 357 352 348 346 343 341 336 334 332 330 329 330 330 327 323 332 341 334 326 328 331 330 330 328 329 329 326 328 333 329 331 333